Printer-friendly version

IAU Minor Planet Center

Minor Planet Center

MPEC 2006-V51 : 2006 VZ2

The following Minor Planet Electronic Circular may be linked-to from your own Web pages, but must not otherwise be redistributed electronically.


Read MPEC 2006-V50 Read MPEC 2006-V52


M.P.E.C. 2006-V51                                Issued 2006 Nov. 13, 17:54 UT

     The Minor Planet Electronic Circulars contain information on unusual
         minor planets and routine data on comets.  They are published
   on behalf of Commission 20 of the International Astronomical Union by the
          Minor Planet Center, Smithsonian Astrophysical Observatory,
                          Cambridge, MA 02138, U.S.A.

             Prepared using the Tamkin Foundation Computer Network

                              MPC@CFA.HARVARD.EDU
          URL http://cfa-www.harvard.edu/iau/mpc.html  ISSN 1523-6714

                                   2006 VZ2

Observations:
     K06V02Z* C2006 11 11.45767 08 09 18.90 +53 25 14.4          19.2 V EV051703
     K06V02Z  C2006 11 11.46555 08 09 20.88 +53 24 34.9          19.3 V EV051703
     K06V02Z  C2006 11 11.47340 08 09 22.53 +53 23 54.3          19.1 V EV051703
     K06V02Z  C2006 11 11.48133 08 09 24.40 +53 23 12.2          19.0 V EV051703
     K06V02Z  C2006 11 11.52819 08 09 35.18 +53 19 09.6          18.9 V EV051703
     K06V02Z  C2006 11 11.52964 08 09 35.39 +53 19 03.2          18.7 V EV051703
     K06V02Z  C2006 11 11.53112 08 09 35.81 +53 18 55.2          19.0 V EV051703
     K06V02Z  C2006 11 12.18751 08 12 17.22 +52 20 27.0          19.0 R EV051204
     K06V02Z  C2006 11 12.19152 08 12 18.11 +52 20 04.6                 EV051204
     K06V02Z  C2006 11 12.19604 08 12 19.16 +52 19 39.9                 EV051204
     K06V02Z  C2006 11 12.35790 08 13 01.08 +52 04 45.5          19.2 R EV051854
     K06V02Z  C2006 11 12.36173 08 13 01.94 +52 04 24.4          19.2 R EV051854
     K06V02Z  C2006 11 12.36562 08 13 02.79 +52 04 03.8          19.2 R EV051854
     K06V02Z  C2006 11 12.42643 08 13 16.71 +51 58 29.3          19.1 V EV051703
     K06V02Z  C2006 11 12.42730 08 13 16.99 +51 58 24.1          19.0 V EV051703
     K06V02Z  C2006 11 12.42818 08 13 17.07 +51 58 19.4          19.2 V EV051703
     K06V02Z 2C2006 11 13.33678 08 16 56.74 +50 30 05.7          18.5 R EV051H06
     K06V02Z 2C2006 11 13.34446 08 16 57.74 +50 29 35.8          18.5 R EV051H06
     K06V02Z 2C2006 11 13.35209 08 16 59.65 +50 28 53.1          18.8 R EV051H06
     K06V02Z  C2006 11 13.41234 08 17 13.30 +50 22 51.6          19.2 V EV051G96
     K06V02Z  C2006 11 13.41287 08 17 13.41 +50 22 48.7          19.2 V EV051G96
     K06V02Z  C2006 11 13.41341 08 17 13.52 +50 22 45.3          19.4 V EV051G96
     K06V02Z  C2006 11 13.41395 08 17 13.66 +50 22 41.4          19.0 V EV051G96

Observer details:
204 Schiaparelli Observatory.  Observers L. Buzzi, F. Luppi.  Measurer
    L. Buzzi.  0.60-m f/4.64 reflector + CCD.
703 Catalina Sky Survey.  Observer A. R. Gibbs.  Measurers E. C. Beshore,
    E. J. Christensen, G. J. Garradd, A. R. Gibbs, A. D. Grauer, R. E. Hill,
    R. A. Kowalski, S. M. Larson, R. H. McNaught.  0.68-m Schmidt + CCD.
854 Sabino Canyon Observatory, Tucson.  Observer J. E. McGaha.  0.36-m f/10.0
    Schmidt-Cassegrain + CCD.
G96 Mt. Lemmon Survey.  Observer E. J. Christensen.  Measurers E. C. Beshore,
    E. J. Christensen, G. J. Garradd, A. R. Gibbs, A. D. Grauer, R. E. Hill,
    R. A. Kowalski, S. M. Larson, R. H. McNaught.  1.5-m reflector + CCD.
H06 RAS Observatory, Mayhill.  Observer R. Hutsebaut.  0.25-m reflector + CCD.

Orbital elements:
2006 VZ2                                                 Earth MOID = 0.0738 AU
Epoch 2006 Sept. 22.0 TT = JDT 2454000.5                MPC
M 333.79545              (2000.0)            P               Q
n   0.27744761     Peri.  216.00483     -0.20207441     -0.80439733
a   2.3281738      Node   251.97716     +0.97820872     -0.13800238
e   0.5743519      Incl.   35.97947     +0.04768264     -0.57784105
P   3.55           H   19.6           G   0.15           U   9
Residuals in seconds of arc
061111 703  0.2-  0.2-    061112 204  0.0   0.2-    061113 H06 (6.2+ 16.5-)
061111 703  1.3+  0.7+    061112 204  0.1+  0.1-    061113 H06  0.9-  1.0-
061111 703  0.2-  0.5+    061112 854  0.5+  0.1+    061113 H06  0.8+  1.5+
061111 703  0.2+  0.8-    061112 854  0.2+  0.1-    061113 G96  0.1+  0.0
061111 703  0.1+  0.7-    061112 854  0.3-  0.5+    061113 G96  0.0   0.2+
061111 703  1.0-  0.5+    061112 703  0.5-  0.0     061113 G96  0.1-  0.1+
061111 703  0.3-  0.2+    061112 703  0.2+  0.4-    061113 G96  0.1+  0.6-
061112 204  0.2+  0.2+    061112 703  0.9-  0.2-

Ephemeris:
2006 VZ2                 a,e,i = 2.33, 0.57, 36                  q = 0.9910
Date    TT    R. A. (2000) Decl.     Delta      r     Elong.  Phase     V
2006 11 11    08 07.40   +54 03.8    0.309    1.143   112.1    53.4    19.3
2006 11 21    08 44.68   +32 39.6    0.209    1.086   112.8    57.0    18.4
2006 12 01    09 14.60   -08 04.8    0.174    1.041   103.6    67.1    18.3
2006 12 11    09 40.48   -43 30.2    0.231    1.009    89.3    77.4    19.1
2006 12 21    10 05.35   -60 48.0    0.330    0.993    81.9    78.9    19.9
2006 12 31    10 31.48   -69 33.7    0.436    0.994    78.6    75.9    20.4
2007 01 10    11 00.09   -74 40.2    0.535    1.012    77.4    71.6    20.8
2007 01 20    11 30.14   -77 54.2    0.622    1.045    77.6    66.9    21.0
2007 01 30    11 58.23   -79 56.5    0.693    1.092    79.1    62.3    21.2
2007 02 09    12 18.89   -81 05.9    0.748    1.149    81.7    58.1    21.4
2007 02 19    12 26.06   -81 28.7    0.788    1.215    85.5    54.2    21.5
2007 03 01    12 18.72   -81 00.0    0.813    1.286    90.4    50.4    21.6
2007 03 11    12 03.60   -79 28.9    0.827    1.361    96.4    46.5    21.6
2007 03 21    11 49.67   -76 44.2    0.835    1.439   103.2    42.4    21.6
2007 03 31    11 42.14   -72 41.7    0.843    1.517   110.7    38.0    21.7
2007 04 10    11 41.21   -67 28.0    0.856    1.596   118.3    33.5    21.7
2007 04 20    11 45.23   -61 19.3    0.882    1.675   125.1    29.4    21.7
2007 04 30    11 52.70   -54 43.1    0.928    1.753   129.9    26.1    21.8
2007 05 10    12 02.38   -48 11.3    0.996    1.830   131.8    24.3    22.0

Kyle E. Smalley              (C) Copyright 2006 MPC           M.P.E.C. 2006-V51

Read MPEC 2006-V50 Read MPEC 2006-V52


Our Web policy. Index to the CBAT/MPC/ICQ pages.


Valid HTML 4.01!